Tracking 20228 objects as of 17-Jan-2020
HD Live streaming from Space Station
objects crossing your sky now

FENGYUN 1C DEB

Track FENGYUN 1C DEB now!
10-day predictions


NORAD ID: 30365
Int'l Code: 1999-025ACC
Perigee: 719.6 km
Apogee: 969.2 km
Inclination: 98.7 °
Period: 101.7 minutes
Semi major axis: 7215 km
RCS: 0.026 m2 (small)
Launch date: May 10, 1999
Source: People's Republic of China (PRC)
Launch site: Taiyaun Space Center, China (TSC)

Note: This is SATELLITE DEBRIS
aabbcc
Your satellite tracking list
Your tracking list is empty




NASA's NSSDC Master Catalog

Two Line Element Set (TLE):
1 30365U 99025ACC 20016.87135623  .00000036  00000-0  34675-4 0  9994
2 30365  98.6827  47.3236 0172965 197.5340 338.6282 14.16495784670704
Source of the keplerian elements: AFSPC